Weather History for Rome Ciampino, Italy

Change the Weather History Date:

Tuesday, July 9, 2013

  Actual Average Record
Temperature  
Mean Temperature 76 °F -  
Max Temperature 87 °F 87 °F 93 °F (2011)
Min Temperature 64 °F 63 °F 46 °F (1996)
Cooling Degree Days 10    
Growing Degree Days 26 (Base 50)    
Moisture  
Dew Point 64 °F    
Average Humidity 76    
Maximum Humidity 100    
Minimum Humidity 40    
Precipitation  
Precipitation 0.00 in 0.03 in - ()
Sea Level Pressure  
Sea Level Pressure 30.03 in    
Wind  
Wind Speed 3 mph ()    
Max Wind Speed 10 mph    
Max Gust Speed -    
Visibility 6.2 miles    
Events Rain , Thunderstorm    
Averages and records for this station are not official NWS values.
T = Trace of Precipitation, MM = Missing Value Source: Averaged Metar Reports

Daily Weather History Graph

Daily Weather History Graph

Search for Another Location

Airport:

Trip Planner

Search our weather history database for the weather conditions in past years. The results will help you decide how hot, cold, wet, or windy it might be!

Date:

Astronomy

Jul. 09, 2013 Rise Set
Actual Time 5:43 AM CEST 8:46 PM CEST
Civil Twilight 5:09 AM CEST 9:19 PM CEST
Nautical Twilight 4:26 AM CEST 10:02 PM CEST
Astronomical Twilight 3:36 AM CEST 10:52 PM CEST
Moon 6:53 AM CEST (7/9) 9:11 PM CEST (7/9)
Length of Visible Light 16h 09m
Length of Day
15h 02m
New Moon, 1% of the Moon is Illuminated
Jul 9
New Moon
Jul 16
First Quarter
Jul 22
Full
Jul 29
Last Quarter
Aug 6
New

Hourly Weather History & Observations

Time (CEST) Temp. Heat Index Dew Point Humidity Pressure Visibility Wind Dir Wind Speed Gust Speed Precip Events Conditions
12:15 AM 68.0 °F - 66.2 °F 94% 30.06 in 6.2 mi NNE 5.8 mph - N/A   Partly Cloudy
12:45 AM 68.0 °F - 66.2 °F 94% 30.06 in 6.2 mi NNE 1.2 mph - N/A   Partly Cloudy
1:15 AM 68.0 °F - 66.2 °F 94% 30.06 in - NW 2.3 mph - N/A   Clear
1:45 AM 66.2 °F - 64.4 °F 94% 30.06 in - Calm Calm - N/A   Clear
2:15 AM 64.4 °F - 62.6 °F 94% 30.06 in - SE 1.2 mph - N/A   Clear
2:45 AM 66.2 °F - 64.4 °F 94% 30.06 in - ENE 2.3 mph - N/A   Clear
3:15 AM 66.2 °F - 64.4 °F 94% 30.06 in - ENE 2.3 mph - N/A   Clear
3:45 AM 64.4 °F - 64.4 °F 100% 30.06 in - East 2.3 mph - N/A   Clear
4:15 AM 64.4 °F - 64.4 °F 100% 30.06 in - Calm Calm - N/A   Clear
4:45 AM 64.4 °F - 64.4 °F 100% 30.06 in - Calm Calm - N/A   Clear
5:15 AM 64.4 °F - 62.6 °F 94% 30.06 in - NNE 2.3 mph - N/A   Clear
5:45 AM 64.4 °F - 62.6 °F 94% 30.06 in - NE 2.3 mph - N/A   Clear
6:15 AM 64.4 °F - 62.6 °F 94% 30.06 in 6.2 mi North 1.2 mph - N/A   Partly Cloudy
6:45 AM 64.4 °F - 62.6 °F 94% 30.06 in 6.2 mi NE 2.3 mph - N/A   Partly Cloudy
7:15 AM 66.2 °F - 64.4 °F 94% 30.06 in 6.2 mi North 1.2 mph - N/A   Partly Cloudy
7:45 AM 66.2 °F - 66.2 °F 100% 30.06 in 6.2 mi North 3.5 mph - N/A   Partly Cloudy
8:15 AM 68.0 °F - 66.2 °F 94% 30.06 in 6.2 mi North 4.6 mph - N/A   Partly Cloudy
8:45 AM 69.8 °F - 64.4 °F 83% 30.06 in 6.2 mi NNE 3.5 mph - N/A   Partly Cloudy
9:15 AM 73.4 °F - 66.2 °F 78% 30.06 in 6.2 mi NE 5.8 mph - N/A   Partly Cloudy
9:45 AM 75.2 °F - 66.2 °F 73% 30.06 in 6.2 mi NE 5.8 mph - N/A   Partly Cloudy
10:15 AM 77.0 °F - 66.2 °F 69% 30.06 in 6.2 mi NNE 4.6 mph - N/A   Partly Cloudy
10:45 AM 78.8 °F - 66.2 °F 65% 30.04 in 6.2 mi NW 2.3 mph - N/A   Partly Cloudy
11:15 AM 80.6 °F 82.3 °F 64.4 °F 58% 30.04 in 6.2 mi NNW 3.5 mph - N/A   Partly Cloudy
11:45 AM 82.4 °F 84.6 °F 66.2 °F 58% 30.04 in 6.2 mi East 2.3 mph - N/A   Partly Cloudy
12:15 PM 84.2 °F 85.0 °F 62.6 °F 48% 30.04 in 6.2 mi SW 4.6 mph - N/A   Partly Cloudy
12:45 PM 84.2 °F 85.0 °F 62.6 °F 48% 30.04 in 6.2 mi South 4.6 mph - N/A   Scattered Clouds
1:15 PM 86.0 °F 86.6 °F 62.6 °F 45% 30.01 in 6.2 mi SSW 3.5 mph - N/A   Scattered Clouds
1:45 PM 86.0 °F 86.6 °F 62.6 °F 45% 30.01 in 6.2 mi SSW 6.9 mph - N/A   Partly Cloudy
2:15 PM 86.0 °F 86.1 °F 60.8 °F 43% 30.01 in 6.2 mi SW 10.4 mph - N/A   Partly Cloudy
2:45 PM 86.0 °F 86.1 °F 60.8 °F 43% 29.98 in 6.2 mi SW 10.4 mph - N/A   Partly Cloudy
3:15 PM 87.8 °F 87.6 °F 60.8 °F 40% 29.98 in 6.2 mi WSW 8.1 mph - N/A   Scattered Clouds
3:45 PM 84.2 °F 84.4 °F 60.8 °F 45% 30.01 in 6.2 mi West 5.8 mph - N/A Thunderstorm Thunderstorm
4:15 PM 82.4 °F 82.9 °F 60.8 °F 48% 30.01 in 6.2 mi WSW 3.5 mph - N/A Rain , Thunderstorm Light Thunderstorms and Rain
4:45 PM 80.6 °F 81.8 °F 62.6 °F 54% 30.01 in 6.2 mi SE 5.8 mph - N/A Rain , Thunderstorm Light Thunderstorms and Rain
5:15 PM 73.4 °F - 64.4 °F 73% 30.01 in 6.2 mi NE 6.9 mph - N/A Thunderstorm Light Thunderstorm
5:45 PM 75.2 °F - 66.2 °F 73% 30.01 in 6.2 mi ESE 6.9 mph - N/A Rain Light Rain
6:15 PM 77.0 °F - 68.0 °F 74% 29.98 in 6.2 mi East 5.8 mph - N/A Rain Light Rain
6:45 PM 75.2 °F - 68.0 °F 78% 29.98 in 6.2 mi ESE 5.8 mph - N/A   Mostly Cloudy
7:15 PM 77.0 °F - 68.0 °F 74% 29.98 in 6.2 mi East 3.5 mph - N/A   Scattered Clouds
7:45 PM 73.4 °F - 68.0 °F 83% 30.01 in 6.2 mi NE 5.8 mph - N/A   Scattered Clouds
8:15 PM 71.6 °F - 64.4 °F 78% 30.01 in 6.2 mi NE 6.9 mph - N/A   Scattered Clouds
8:45 PM 71.6 °F - 62.6 °F 73% 29.98 in 6.2 mi East 3.5 mph - N/A   Scattered Clouds
9:15 PM 71.6 °F - 64.4 °F 78% 29.98 in 6.2 mi NE 3.5 mph - N/A   Scattered Clouds
9:45 PM 71.6 °F - 64.4 °F 78% 29.98 in 6.2 mi ENE 2.3 mph - N/A   Scattered Clouds
10:15 PM 71.6 °F - 64.4 °F 78% 29.98 in 6.2 mi NNE 3.5 mph - N/A   Scattered Clouds
10:45 PM 69.8 °F - 64.4 °F 83% 29.98 in 6.2 mi Calm Calm - N/A   Partly Cloudy
11:15 PM 69.8 °F - 66.2 °F 88% 29.98 in 6.2 mi NE 4.6 mph - N/A   Partly Cloudy
11:45 PM 68.0 °F - 64.4 °F 88% 29.98 in 6.2 mi ENE 3.5 mph - N/A   Partly Cloudy